Regional Weather Roundup
Issued by NWS

Home | Current Version | Previous Version | Text Only | Print | Product List | Glossary Off
Versions: 1 2 3 4 5 6 7 8 9 10 11 12 13 14 15 16 17 18 19 20 21 22 23 24 25 26 27 28 29 30 31 32 33 34 35 36 37 38 39 40 41 42 43 44 45 46 47 48 49 50

364
ASUS43 KLOT 251803
RWRIL

ILLINOIS REGIONAL WEATHER ROUNDUP
NATIONAL WEATHER SERVICE CHICAGO/ROMEOVILLE IL
100 PM CDT WED MAY 25 2016

NOTE: "FAIR" INDICATES FEW OR NO CLOUDS BELOW 12,000 FEET WITH NO
SIGNIFICANT WEATHER AND/OR OBSTRUCTIONS TO VISIBILITY.

* THESE STATIONS ARE NOT UNDER NWS QUALITY CONTROL. THEY ALSO MAY NOT
  REPORT WEATHER SUCH AS PRECIPITATION OR FOG.

ILZ001-002-007-009-015-016-024-251900-
NORTHWEST ILLINOIS

CITY           SKY/WX    TMP DP  RH WIND       PRES   REMARKS
MOLINE         CLOUDY    84  65  52 S13       29.91F HX  86
6HR MIN TEMP:  68; 6HR MAX TEMP:  85;

STERLING*      MOSUNNY   86  62  44 SE9       29.91F HX  86
$$

ILZ003-004-008-010-011-017-018-251900-
NORTH CENTRAL ILLINOIS

CITY           SKY/WX    TMP DP  RH WIND       PRES   REMARKS
ROCKFORD       CLOUDY    85  63  47 S14       29.94F HX  86
6HR MIN TEMP:  67; 6HR MAX TEMP:  85;

FREEPORT*      CLOUDY    83  60  46 S17       29.94F HX  83
ROCHELLE*      PTSUNNY   86  60  41 SE13G20   29.94F HX  86
$$

ILZ005-006-012>014-019>023-251900-
NORTHEAST ILLINOIS

CITY           SKY/WX    TMP DP  RH WIND       PRES   REMARKS
CHICAGO-OHARE  CLOUDY    81  62  52 SE9       29.96F HX  82
6HR MIN TEMP:  69; 6HR MAX TEMP:  81;

CHICAGO-MIDWAY PTSUNNY   85  61  44 S9G16     29.97F HX  85
6HR MIN TEMP:  71; 6HR MAX TEMP:  85;

AURORA         CLOUDY    83  64  52 SE13G22   29.96F HX  84
6HR MIN TEMP:  68; 6HR MAX TEMP:  85;

LANSING*       CLOUDY    82  60  46 S7        29.98F HX  82
WAUKEGAN       MOSUNNY   78  65  63 SE12      29.97F HX  80
6HR MIN TEMP:  71; 6HR MAX TEMP:  80;

DUPAGE AIRPORT MOSUNNY   82  61  48 SE10G16   29.95F HX  83
6HR MIN TEMP:  68; 6HR MAX TEMP:  82;

WHEELING         N/A    N/A N/A N/A S10       29.98F
NORTHERLY ISL    N/A     69  60  73 S3          N/A
NORTHERLY ISL    N/A     69  60  73 S3          N/A
$$

LMZ740>746-251900-
SOUTHERN LAKE MICHIGAN

STATION/POSITION SKY/WX   TEMP    WIND        PRES    VSBY  WAVE
                          AIR SEA DIR/SP/G                  HT/PER
                          (F)     (DEG/KT/KT) (MB)    (MI)  (FT/S)
SOUTHERN BUOY              54 50  160/  6/  8 1016.0          1
WILMETTE HARBOR            62 57  160/  8/ 10   N/A           1/ 2
HARRISON CRIB              74     130/ 13/ 13   N/A
BURNHAM HARBOR             69      80/  6/  9   N/A
CALUMET HARBOR             79     160/  6/ 10 1015.1R
BURNS HARBOR               79     200/  8/ 13 1016.3S
MICHIGAN CITY              79     150/  8/ 10   N/A
MICHIGAN CITY 6N           72 60  210/  2/  4   N/A           1
ST. JOSEPH                 71 63  290/  4/  4   N/A           0
$$

ILZ025>027-034>036-040-047-049-050-058-095>099-251900-
WEST-CENTRAL ILLINOIS

CITY           SKY/WX    TMP DP  RH WIND       PRES   REMARKS
QUINCY         CLOUDY    78  64  61 VRB6      29.94F HX  80
MACOMB*        CLOUDY    79  65  62 S15       29.97S HX  81
PITTSFIELD*    CLOUDY    80  66  64 S8        29.96S HX  82
$$

ILZ028>032-037-038-041>044-048-051>054-059>061-251900-
CENTRAL ILLINOIS

CITY           SKY/WX    TMP DP  RH WIND       PRES   REMARKS
BLOOMINGTON    MOSUNNY   85  66  52 S20       29.97F HX  87
DECATUR        MOSUNNY   81  64  56 S17       29.97F HX  82
PEORIA         MOSUNNY   84  65  52 S15G23    29.93F HX  86
6HR MIN TEMP:  67; 6HR MAX TEMP:  84;

SPRINGFIELD    CLOUDY    83  66  56 S15       29.96F HX  85
6HR MIN TEMP:  67; 6HR MAX TEMP:  84;

TAYLORVILLE    NOT AVBL
$$

ILZ033-039-045-046-055>057-062-063-251900-
EAST-CENTRAL ILLINOIS

CITY           SKY/WX    TMP DP  RH WIND       PRES   REMARKS
CHAMPAIGN      MOSUNNY   87  63  44 S17G25    29.99F HX  88
MATTOON        MOSUNNY   78  62  57 S14G23    30.01F HX  80
$$

ILZ079-100>102-251900-
SOUTHWEST ILLINOIS

CITY           SKY/WX    TMP DP  RH WIND       PRES   REMARKS
ALTON          PTSUNNY   70  66  88 SE9       30.01S
BELLEVILLE     CLOUDY    75  74  99 SE9       30.01S
CAHOKIA*       CLOUDY    77  68  73 S14       30.00F
SPARTA*        CLOUDY    75  67  76 S9G18     30.04F
$$

ILZ064>066-069>071-074>076-080>082-084>086-088>090-092>094-251900-
SOUTH-CENTRAL ILLINOIS

CITY           SKY/WX    TMP DP  RH WIND       PRES   REMARKS
CARBONDALE     CLOUDY    74  65  73 S12       30.07F
6HR MIN TEMP:  64; 6HR MAX TEMP:  74; 6HR PCP:  0.22;

EFFINGHAM*     PTSUNNY   76  67  73 SE15G21   30.05F
MARION         CLOUDY    75  68  78 S12       30.08F
MT. VERNON     MOSUNNY   75  64  69 S14G20    30.06F
SALEM*         CLOUDY    77  66  68 S16G23    30.03F
$$

ILZ067-068-072-073-078-083-087-091-251900-
SOUTHEAST ILLINOIS

CITY           SKY/WX    TMP DP  RH WIND       PRES   REMARKS
LAWRENCEVILLE  CLOUDY    76  65  68 SW18G24   30.08S
FLORA*         CLOUDY    72  68  88 S12       30.05F
HARRISBURG*    TSTM      67  66  97 E15       30.10S VSB 3/4
ROBINSON*      MOSUNNY   77  66  68 S17       30.06F
$$

ABBREVIATIONS USED IN REMARKS
   TC - TEMPERATURE IN CELSIUS
  WCI - WIND CHILL INDEX
   HX - HEAT INDEX
  VSB - VISIBILITY
$$





USA.gov is the U.S. government's official web portal to all federal, state and local government web resources and services.